• în Republica Moldova
  • Lista ţărilor
  • Pe 7 zile
  • Temperatura apei
  • Hartă satelitară
  • Meteo pe hartă
  • Widget-uri
  • user-avatar
    Intrare

    Meteo pe oră la Algiers

    Astăzi, 20 Ianuarie, Vineri

    Timp Temperatura Precipitaţii Vânt Presiune Umiditate
    00:00 +6°C° 0 mm 4 m/s 749 mmHg 68%
    01:00 +6°C° 0 mm 4 m/s 748 mmHg 67%
    02:00 +6°C° 0 mm 4 m/s 748 mmHg 66%
    03:00 +6°C° 0 mm 4 m/s 748 mmHg 65%
    04:00 +5°C° 0 mm 4 m/s 748 mmHg 64%
    05:00 +5°C° 0 mm 4 m/s 748 mmHg 64%
    06:00 +5°C° 0 mm 3 m/s 747 mmHg 64%
    07:00 +7°C° 0 mm 3 m/s 747 mmHg 62%
    08:00 +8°C° 0 mm 3 m/s 747 mmHg 61%
    09:00 +9°C° 0 mm 3 m/s 747 mmHg 60%
    10:00 +10°C° 0 mm 2 m/s 747 mmHg 56%
    11:00 +13°C° 0 mm 2 m/s 747 mmHg 51%
    12:00 +13°C° 0 mm 3 m/s 746 mmHg 48%
    13:00 +13°C° 0 mm 3 m/s 746 mmHg 51%
    14:00 +13°C° 0 mm 4 m/s 745 mmHg 54%
    15:00 +13°C° 0 mm 4 m/s 745 mmHg 58%
    16:00 +11°C° 0 mm 4 m/s 745 mmHg 65%
    17:00 +8°C° 0 mm 4 m/s 745 mmHg 73%
    18:00 +7°C° 0 mm 4 m/s 744 mmHg 80%
    19:00 +7°C° 0,1 mm 4 m/s 744 mmHg 80%
    20:00 +8°C° 0,1 mm 3 m/s 744 mmHg 81%
    21:00 +8°C° 0,1 mm 3 m/s 744 mmHg 81%
    22:00 +8°C° 0,4 mm 3 m/s 744 mmHg 83%
    23:00 +8°C° 0,4 mm 3 m/s 744 mmHg 85%

    Mâine, 21 Ianuarie, Sâmbătă

    Timp Temperatura Precipitaţii Vânt Presiune Umiditate
    00:00 +8°C° 0,4 mm 3 m/s 743 mmHg 87%
    01:00 +6°C° 0,5 mm 4 m/s 743 mmHg 88%
    02:00 +6°C° 0,5 mm 4 m/s 742 mmHg 89%
    03:00 +6°C° 0,5 mm 4 m/s 742 mmHg 90%
    04:00 +6°C° 0,3 mm 4 m/s 742 mmHg 90%
    05:00 +6°C° 0,3 mm 4 m/s 741 mmHg 90%
    06:00 +6°C° 0,3 mm 4 m/s 741 mmHg 91%
    07:00 +7°C° 0,1 mm 4 m/s 741 mmHg 87%
    08:00 +8°C° 0,1 mm 4 m/s 741 mmHg 83%
    09:00 +10°C° 0,1 mm 4 m/s 741 mmHg 79%
    10:00 +11°C° 0,3 mm 3 m/s 741 mmHg 75%
    11:00 +12°C° 0,3 mm 3 m/s 740 mmHg 71%
    12:00 +13°C° 0,3 mm 3 m/s 740 mmHg 67%
    13:00 +13°C° 0,5 mm 3 m/s 740 mmHg 69%
    14:00 +12°C° 0,5 mm 3 m/s 740 mmHg 70%
    15:00 +12°C° 0,5 mm 3 m/s 739 mmHg 72%
    16:00 +11°C° 0,1 mm 4 m/s 740 mmHg 77%
    17:00 +10°C° 0,1 mm 4 m/s 740 mmHg 83%
    18:00 +8°C° 0,1 mm 4 m/s 740 mmHg 89%
    19:00 +7°C° 0,3 mm 5 m/s 740 mmHg 89%
    20:00 +7°C° 0,3 mm 5 m/s 740 mmHg 90%
    21:00 +7°C° 0,3 mm 5 m/s 741 mmHg 90%
    22:00 +6°C° 0,7 mm 5 m/s 741 mmHg 90%
    23:00 +6°C° 0,7 mm 4 m/s 741 mmHg 90%

    Poimâine, 22 Ianuarie, Duminică

    Timp Temperatura Precipitaţii Vânt Presiune Umiditate
    00:00 +6°C° 0,7 mm 4 m/s 741 mmHg 90%
    01:00 +6°C° 0,6 mm 4 m/s 740 mmHg 90%
    02:00 +6°C° 0,6 mm 4 m/s 740 mmHg 90%
    03:00 +6°C° 0,6 mm 4 m/s 740 mmHg 90%
    04:00 +7°C° 0,9 mm 3 m/s 740 mmHg 91%
    05:00 +7°C° 0,9 mm 3 m/s 740 mmHg 91%
    06:00 +7°C° 0,9 mm 3 m/s 740 mmHg 92%
    07:00 +8°C° 0,5 mm 3 m/s 741 mmHg 90%
    08:00 +8°C° 0,5 mm 3 m/s 741 mmHg 88%
    09:00 +9°C° 0,5 mm 3 m/s 742 mmHg 86%
    10:00 +10°C° 0,1 mm 3 m/s 742 mmHg 80%
    11:00 +12°C° 0,1 mm 2 m/s 742 mmHg 75%
    12:00 +12°C° 0,1 mm 2 m/s 743 mmHg 69%
    13:00 +12°C° 0,1 mm 3 m/s 743 mmHg 70%
    14:00 +12°C° 0,1 mm 3 m/s 743 mmHg 70%
    15:00 +12°C° 0,1 mm 3 m/s 743 mmHg 70%
    16:00 +10°C° 0,5 mm 3 m/s 743 mmHg 77%
    17:00 +9°C° 0,5 mm 3 m/s 744 mmHg 84%
    18:00 +8°C° 0,5 mm 3 m/s 744 mmHg 91%
    19:00 +8°C° 0,6 mm 3 m/s 744 mmHg 92%
    20:00 +8°C° 0,6 mm 3 m/s 744 mmHg 92%
    21:00 +7°C° 0,6 mm 4 m/s 745 mmHg 92%
    22:00 +7°C° 0,6 mm 4 m/s 745 mmHg 92%
    23:00 +7°C° 0,6 mm 4 m/s 745 mmHg 92%

    23 Ianuarie, Luni

    Timp Temperatura Precipitaţii Vânt Presiune Umiditate
    00:00 +7°C° 0,6 mm 4 m/s 745 mmHg 92%
    01:00 +7°C° 0,9 mm 4 m/s 745 mmHg 92%
    02:00 +7°C° 0,9 mm 5 m/s 745 mmHg 93%
    03:00 +7°C° 0,9 mm 5 m/s 745 mmHg 93%
    04:00 +7°C° 1,3 mm 5 m/s 745 mmHg 93%
    05:00 +7°C° 1,3 mm 5 m/s 745 mmHg 94%
    06:00 +7°C° 1,3 mm 5 m/s 745 mmHg 95%
    07:00 +8°C° 1,4 mm 6 m/s 746 mmHg 93%
    08:00 +8°C° 1,4 mm 6 m/s 746 mmHg 92%
    09:00 +8°C° 1,4 mm 6 m/s 746 mmHg 91%
    10:00 +9°C° 1,1 mm 7 m/s 746 mmHg 91%
    11:00 +9°C° 1,1 mm 7 m/s 747 mmHg 90%
    12:00 +9°C° 1,1 mm 8 m/s 747 mmHg 89%
    13:00 +9°C° 1,3 mm 8 m/s 747 mmHg 90%
    14:00 +9°C° 1,3 mm 8 m/s 747 mmHg 90%
    15:00 +9°C° 1,3 mm 8 m/s 747 mmHg 90%
    16:00 +7°C° 1,5 mm 8 m/s 747 mmHg 91%
    17:00 +8°C° 1,5 mm 7 m/s 747 mmHg 92%
    18:00 +8°C° 1,5 mm 6 m/s 748 mmHg 93%
    19:00 +8°C° 1 mm 6 m/s 748 mmHg 93%
    20:00 +7°C° 1 mm 5 m/s 748 mmHg 93%
    21:00 +7°C° 1 mm 5 m/s 749 mmHg 93%
    22:00 +7°C° 0,8 mm 5 m/s 749 mmHg 93%
    23:00 +7°C° 0,8 mm 5 m/s 749 mmHg 93%

    24 Ianuarie, Marţi

    Timp Temperatura Precipitaţii Vânt Presiune Umiditate
    00:00 +6°C° 0,8 mm 5 m/s 749 mmHg 93%
    01:00 +6°C° 0,7 mm 5 m/s 749 mmHg 93%
    02:00 +6°C° 0,7 mm 4 m/s 749 mmHg 94%
    03:00 +6°C° 0,7 mm 4 m/s 749 mmHg 94%
    04:00 +6°C° 1,1 mm 4 m/s 749 mmHg 94%
    05:00 +6°C° 1,1 mm 5 m/s 749 mmHg 95%
    06:00 +5°C° 1,1 mm 5 m/s 750 mmHg 95%
    07:00 +6°C° 1,3 mm 5 m/s 750 mmHg 95%
    08:00 +7°C° 1,3 mm 5 m/s 751 mmHg 94%
    09:00 +8°C° 1,3 mm 5 m/s 752 mmHg 93%
    10:00 +8°C° 0,7 mm 5 m/s 752 mmHg 90%
    11:00 +10°C° 0,7 mm 4 m/s 752 mmHg 87%
    12:00 +10°C° 0,7 mm 4 m/s 752 mmHg 84%
    13:00 +10°C° 0,8 mm 4 m/s 752 mmHg 84%
    14:00 +9°C° 0,8 mm 5 m/s 752 mmHg 85%
    15:00 +9°C° 0,8 mm 6 m/s 752 mmHg 85%
    16:00 +8°C° 1,6 mm 5 m/s 752 mmHg 87%
    17:00 +8°C° 1,6 mm 5 m/s 752 mmHg 90%
    18:00 +7°C° 1,6 mm 5 m/s 753 mmHg 92%
    19:00 +7°C° 0,9 mm 4 m/s 753 mmHg 92%
    20:00 +7°C° 0,9 mm 4 m/s 753 mmHg 91%
    21:00 +7°C° 0,9 mm 4 m/s 754 mmHg 91%
    22:00 +7°C° 0,3 mm 4 m/s 754 mmHg 91%
    23:00 +7°C° 0,3 mm 4 m/s 754 mmHg 91%

    25 Ianuarie, Miercuri

    Timp Temperatura Precipitaţii Vânt Presiune Umiditate
    00:00 +7°C° 0,3 mm 4 m/s 754 mmHg 91%
    01:00 +7°C° 0,1 mm 4 m/s 754 mmHg 91%
    02:00 +7°C° 0,1 mm 4 m/s 754 mmHg 91%
    03:00 +7°C° 0,1 mm 4 m/s 754 mmHg 91%
    04:00 +7°C° 0,2 mm 4 m/s 754 mmHg 90%
    05:00 +6°C° 0,2 mm 4 m/s 754 mmHg 90%
    06:00 +6°C° 0,2 mm 4 m/s 755 mmHg 89%
    07:00 +7°C° 0,3 mm 4 m/s 755 mmHg 87%
    08:00 +8°C° 0,3 mm 4 m/s 755 mmHg 85%
    09:00 +8°C° 0,3 mm 4 m/s 756 mmHg 83%
    10:00 +10°C° 0,5 mm 4 m/s 756 mmHg 81%
    11:00 +10°C° 0,5 mm 4 m/s 755 mmHg 78%
    12:00 +11°C° 0,5 mm 4 m/s 755 mmHg 76%
    13:00 +11°C° 0,4 mm 4 m/s 755 mmHg 77%
    14:00 +11°C° 0,4 mm 4 m/s 755 mmHg 78%
    15:00 +11°C° 0,4 mm 4 m/s 755 mmHg 80%
    16:00 +10°C° 0,3 mm 4 m/s 755 mmHg 84%
    17:00 +10°C° 0,3 mm 3 m/s 756 mmHg 87%
    18:00 +9°C° 0,3 mm 3 m/s 756 mmHg 91%
    19:00 +9°C° 0,2 mm 3 m/s 756 mmHg 92%
    20:00 +8°C° 0,2 mm 3 m/s 757 mmHg 93%
    21:00 +8°C° 0,2 mm 2 m/s 757 mmHg 94%
    22:00 +8°C° 0,1 mm 2 m/s 757 mmHg 95%
    23:00 +8°C° 0,1 mm 2 m/s 757 mmHg 95%
    Arată mai mult